• In Moldova, Republic
  • List of Countries
  • For 7 days
  • Water Temperature
  • Satellite Maps
  • Weather Map
  • Weather Widgets
  • user-avatar
    Login

    Hourly Weather Ali Bayramli

    Today, 21 July, Friday

    Time Temperature Precipitation Wind Pressure Humidity
    00:00 +30°C° 0 mm 1 mps 753 mmHg 39%
    01:00 +29°C° 0 mm 1 mps 753 mmHg 40%
    02:00 +28°C° 0 mm 1 mps 753 mmHg 41%
    03:00 +28°C° 0 mm 1 mps 753 mmHg 42%
    04:00 +29°C° 0 mm 1 mps 753 mmHg 40%
    05:00 +30°C° 0 mm 1 mps 754 mmHg 37%
    06:00 +30°C° 0 mm 2 mps 754 mmHg 35%
    07:00 +32°C° 0 mm 2 mps 754 mmHg 31%
    08:00 +35°C° 0 mm 2 mps 754 mmHg 26%
    09:00 +37°C° 0 mm 2 mps 754 mmHg 22%
    10:00 +38°C° 0 mm 2 mps 754 mmHg 20%
    11:00 +39°C° 0 mm 3 mps 754 mmHg 19%
    12:00 +42°C° 0 mm 4 mps 754 mmHg 17%
    13:00 +42°C° 0 mm 5 mps 754 mmHg 17%
    14:00 +42°C° 0 mm 6 mps 754 mmHg 17%
    15:00 +43°C° 0 mm 7 mps 754 mmHg 17%
    16:00 +41°C° 0 mm 7 mps 754 mmHg 19%
    17:00 +40°C° 0 mm 7 mps 754 mmHg 20%
    18:00 +39°C° 0 mm 6 mps 754 mmHg 21%
    19:00 +36°C° 0 mm 6 mps 755 mmHg 25%
    20:00 +35°C° 0 mm 5 mps 755 mmHg 30%
    21:00 +33°C° 0 mm 5 mps 755 mmHg 34%
    22:00 +33°C° 0 mm 4 mps 755 mmHg 35%
    23:00 +32°C° 0 mm 4 mps 755 mmHg 37%

    Tomorrow, 22 July, Saturday

    Time Temperature Precipitation Wind Pressure Humidity
    00:00 +32°C° 0 mm 4 mps 755 mmHg 38%
    01:00 +30°C° 0 mm 4 mps 755 mmHg 40%
    02:00 +30°C° 0 mm 4 mps 755 mmHg 42%
    03:00 +29°C° 0 mm 4 mps 755 mmHg 44%
    04:00 +30°C° 0 mm 3 mps 756 mmHg 43%
    05:00 +30°C° 0 mm 3 mps 756 mmHg 43%
    06:00 +30°C° 0 mm 3 mps 756 mmHg 43%
    07:00 +33°C° 0 mm 3 mps 756 mmHg 38%
    08:00 +35°C° 0 mm 3 mps 756 mmHg 32%
    09:00 +36°C° 0 mm 3 mps 756 mmHg 27%
    10:00 +38°C° 0 mm 4 mps 756 mmHg 25%
    11:00 +40°C° 0 mm 4 mps 756 mmHg 23%
    12:00 +41°C° 0 mm 5 mps 756 mmHg 21%
    13:00 +41°C° 0 mm 5 mps 755 mmHg 21%
    14:00 +41°C° 0 mm 6 mps 755 mmHg 21%
    15:00 +43°C° 0 mm 7 mps 755 mmHg 21%
    16:00 +40°C° 0 mm 6 mps 754 mmHg 22%
    17:00 +39°C° 0 mm 6 mps 754 mmHg 24%
    18:00 +38°C° 0 mm 6 mps 754 mmHg 26%
    19:00 +36°C° 0 mm 5 mps 754 mmHg 30%
    20:00 +34°C° 0 mm 4 mps 755 mmHg 35%
    21:00 +33°C° 0 mm 3 mps 755 mmHg 39%
    22:00 +31°C° 0 mm 2 mps 755 mmHg 40%
    23:00 +31°C° 0 mm 2 mps 755 mmHg 41%

    Day after tomorrow, 23 July, Sunday

    Time Temperature Precipitation Wind Pressure Humidity
    00:00 +30°C° 0 mm 2 mps 754 mmHg 42%
    01:00 +30°C° 0 mm 2 mps 754 mmHg 43%
    02:00 +29°C° 0 mm 2 mps 754 mmHg 43%
    03:00 +29°C° 0 mm 2 mps 754 mmHg 43%
    04:00 +29°C° 0 mm 2 mps 754 mmHg 42%
    05:00 +30°C° 0 mm 1 mps 754 mmHg 41%
    06:00 +30°C° 0 mm 1 mps 754 mmHg 40%
    07:00 +32°C° 0 mm 1 mps 754 mmHg 35%
    08:00 +34°C° 0 mm 1 mps 753 mmHg 31%
    09:00 +33°C° 0 mm 0 mps 753 mmHg 27%
    10:00 +37°C° 0 mm 1 mps 753 mmHg 24%
    11:00 +39°C° 0 mm 2 mps 753 mmHg 21%
    12:00 +40°C° 0 mm 2 mps 752 mmHg 18%
    13:00 +42°C° 0 mm 3 mps 752 mmHg 17%
    14:00 +42°C° 0 mm 4 mps 752 mmHg 17%
    15:00 +43°C° 0 mm 5 mps 751 mmHg 16%
    16:00 +41°C° 0 mm 5 mps 751 mmHg 18%
    17:00 +40°C° 0 mm 5 mps 751 mmHg 20%
    18:00 +39°C° 0 mm 5 mps 751 mmHg 22%
    19:00 +36°C° 0 mm 4 mps 751 mmHg 27%
    20:00 +35°C° 0 mm 3 mps 751 mmHg 31%
    21:00 +33°C° 0 mm 3 mps 752 mmHg 35%
    22:00 +32°C° 0 mm 2 mps 752 mmHg 36%
    23:00 +31°C° 0 mm 2 mps 752 mmHg 38%

    24 July, Monday

    Time Temperature Precipitation Wind Pressure Humidity
    00:00 +31°C° 0 mm 2 mps 752 mmHg 39%
    01:00 +30°C° 0 mm 2 mps 752 mmHg 40%
    02:00 +30°C° 0 mm 3 mps 752 mmHg 41%
    03:00 +29°C° 0 mm 3 mps 752 mmHg 42%
    04:00 +30°C° 0 mm 3 mps 752 mmHg 42%
    05:00 +30°C° 0 mm 3 mps 752 mmHg 41%
    06:00 +30°C° 0 mm 4 mps 752 mmHg 40%
    07:00 +33°C° 0 mm 4 mps 752 mmHg 36%
    08:00 +35°C° 0 mm 4 mps 752 mmHg 32%
    09:00 +36°C° 0 mm 4 mps 753 mmHg 28%
    10:00 +38°C° 0 mm 4 mps 752 mmHg 26%
    11:00 +40°C° 0 mm 5 mps 752 mmHg 25%
    12:00 +41°C° 0 mm 5 mps 752 mmHg 23%
    13:00 +41°C° 0 mm 6 mps 752 mmHg 24%
    14:00 +41°C° 0 mm 7 mps 751 mmHg 25%
    15:00 +41°C° 0 mm 8 mps 751 mmHg 26%
    16:00 +40°C° 0 mm 9 mps 751 mmHg 28%
    17:00 +39°C° 0 mm 9 mps 751 mmHg 31%
    18:00 +38°C° 0 mm 9 mps 751 mmHg 33%
    19:00 +35°C° 0 mm 9 mps 752 mmHg 36%
    20:00 +34°C° 0 mm 8 mps 752 mmHg 39%
    21:00 +33°C° 0 mm 7 mps 752 mmHg 41%
    22:00 +33°C° 0 mm 7 mps 752 mmHg 43%
    23:00 +32°C° 0 mm 6 mps 752 mmHg 45%

    25 July, Tuesday

    Time Temperature Precipitation Wind Pressure Humidity
    00:00 +32°C° 0 mm 5 mps 752 mmHg 47%
    01:00 +30°C° 0 mm 5 mps 752 mmHg 49%
    02:00 +30°C° 0 mm 4 mps 753 mmHg 51%
    03:00 +29°C° 0 mm 4 mps 753 mmHg 53%
    04:00 +29°C° 0 mm 4 mps 753 mmHg 53%
    05:00 +29°C° 0 mm 4 mps 753 mmHg 53%
    06:00 +30°C° 0 mm 4 mps 753 mmHg 52%
    07:00 +32°C° 0 mm 4 mps 753 mmHg 46%
    08:00 +34°C° 0 mm 4 mps 753 mmHg 39%
    09:00 +36°C° 0 mm 5 mps 753 mmHg 33%
    10:00 +37°C° 0 mm 5 mps 753 mmHg 30%
    11:00 +39°C° 0 mm 6 mps 752 mmHg 27%
    12:00 +40°C° 0 mm 6 mps 752 mmHg 25%
    13:00 +40°C° 0 mm 7 mps 752 mmHg 25%
    14:00 +40°C° 0 mm 7 mps 752 mmHg 26%
    15:00 +40°C° 0 mm 8 mps 751 mmHg 26%
    16:00 +39°C° 0 mm 8 mps 751 mmHg 28%
    17:00 +37°C° 0 mm 8 mps 751 mmHg 30%
    18:00 +35°C° 0 mm 8 mps 751 mmHg 32%
    19:00 +34°C° 0 mm 7 mps 752 mmHg 35%
    20:00 +33°C° 0 mm 6 mps 752 mmHg 37%
    21:00 +32°C° 0 mm 5 mps 752 mmHg 39%
    22:00 +32°C° 0 mm 5 mps 752 mmHg 41%
    23:00 +30°C° 0 mm 4 mps 752 mmHg 42%

    26 July, Wednesday

    Time Temperature Precipitation Wind Pressure Humidity
    00:00 +30°C° 0 mm 4 mps 752 mmHg 43%
    01:00 +29°C° 0 mm 3 mps 752 mmHg 46%
    02:00 +29°C° 0 mm 3 mps 752 mmHg 48%
    03:00 +28°C° 0 mm 3 mps 753 mmHg 51%
    04:00 +28°C° 0 mm 3 mps 753 mmHg 50%
    05:00 +29°C° 0 mm 3 mps 753 mmHg 49%
    06:00 +29°C° 0 mm 3 mps 753 mmHg 49%
    07:00 +31°C° 0 mm 3 mps 753 mmHg 43%
    08:00 +33°C° 0 mm 3 mps 753 mmHg 38%
    09:00 +35°C° 0 mm 3 mps 753 mmHg 33%
    10:00 +36°C° 0 mm 4 mps 753 mmHg 30%
    11:00 +38°C° 0 mm 4 mps 753 mmHg 28%
    12:00 +40°C° 0 mm 4 mps 752 mmHg 25%
    13:00 +40°C° 0 mm 5 mps 752 mmHg 26%
    14:00 +40°C° 0 mm 6 mps 752 mmHg 26%
    15:00 +40°C° 0 mm 7 mps 752 mmHg 26%
    16:00 +39°C° 0 mm 8 mps 752 mmHg 28%
    17:00 +38°C° 0 mm 8 mps 752 mmHg 30%
    18:00 +37°C° 0 mm 8 mps 753 mmHg 32%
    19:00 +35°C° 0 mm 7 mps 753 mmHg 34%
    20:00 +34°C° 0 mm 6 mps 754 mmHg 37%
    21:00 +33°C° 0 mm 6 mps 754 mmHg 39%
    22:00 +32°C° 0 mm 5 mps 754 mmHg 41%
    23:00 +32°C° 0 mm 5 mps 754 mmHg 43%
    Show more